#timestamp,LO_Frequency,Hit,StdDev 
1685282415.8,286047002.1,N
1685282435.6,286047002.0,N
1685282455.4,286047002.1,N
1685282475.3,286047001.5,N
1685282495.1,286047001.5,N
1685282515.9,286047001.5,N
1685282535.7,286047001.7,N
1685282555.5,286047001.8,N
1685282575.4,286047004.4,Y
1685282595.2,286047000.4,P
1685282615.0,286047000.0,N
1685282615.9,286047000.0,N
1685282635.8,286047002.6,N
1685282655.6,286047002.2,N
1685282675.5,286047000.5,N
1685282695.3,286047000.4,N
1685282715.1,286047001.0,N
1685282735.9,286047000.0,N
1685282755.7,286047000.6,N
1685282775.5,286047001.2,N
1685282795.4,286046998.8,N
1685282815.2,286046997.7,N
1685282835.0,286046999.6,N
1685282835.9,286046999.6,N
1685282855.8,286046999.6,N
1685282875.6,286046999.3,N
1685282895.5,286046999.5,N
1685282915.3,286046996.6,N
1685282935.1,286046999.5,N
1685282955.9,286046997.0,N
1685282975.7,286046995.5,N
1685282995.5,286046995.1,N
1685283015.4,286046996.1,N
1685283035.2,286046996.1,N
1685283055.1,286046997.9,N
1685283056.0,286046997.9,N
1685283075.8,286046995.3,N
1685283095.6,286046994.9,N
1685283115.5,286046996.1,N
1685283135.3,286046993.8,N
1685283155.1,286046993.8,N
1685283175.9,286046996.3,N
1685283195.7,286046996.3,N
1685283215.5,286046996.1,N
1685283235.4,286046995.6,N
1685283255.2,286046996.4,N
1685283275.1,286046996.2,N
1685283276.0,286046996.2,N
1685283295.8,286046995.7,N
1685283315.6,286046996.3,N
1685283335.5,286046994.5,Y
1685283355.3,286046999.2,P
1685283375.1,286046996.8,N
1685283395.9,286046997.5,N
1685283415.7,286046997.6,N
1685283435.6,286046995.2,Y
1685283455.4,286046998.9,P
1685283475.2,286046996.9,P
1685283495.1,286046997.4,P
1685283496.0,286046997.4,Y
1685283515.8,286046998.3,P
1685283535.7,286047000.8,N
1685283555.5,286046998.8,N
1685283575.3,286046999.5,N
1685283595.2,286046997.0,N
1685283615.9,286046997.1,N
1685283635.7,286046997.2,N
1685283655.6,286046996.7,N
1685283675.4,286046997.8,N
1685283695.3,286046999.6,N
1685283715.1,286046998.8,N
1685283716.0,286046998.8,N
1685283735.8,286046998.4,N
1685283755.7,286046998.8,N
1685283775.5,286046997.0,N
1685283795.3,286046999.3,N
1685283815.2,286046998.8,N
1685283835.0,286046996.5,Y
1685283835.9,286046996.5,P
1685283855.8,286046998.5,N
1685283875.6,286046998.8,N
1685283895.4,286046997.2,Y
1685283915.3,286046998.5,P
1685283935.1,286047001.0,P
1685283955.8,286046998.1,N
1685283975.7,286046999.1,N
1685283995.5,286046999.6,N
1685284015.4,286046998.9,N
1685284035.2,286046998.4,N
1685284055.0,286046998.4,N
1685284055.9,286046998.4,N
1685284075.8,286046998.3,N
1685284095.6,286046998.9,N
1685284115.4,286046998.1,N
1685284135.3,286046998.9,N
1685284155.1,286046999.6,N
1685284175.9,286046997.3,Y
1685284195.7,286046998.7,P
1685284215.5,286046997.2,P
1685284235.4,286046997.1,P
1685284255.2,286046999.0,N
1685284275.0,286046998.9,N
1685284275.9,286046998.9,N
1685284295.8,286046996.8,Y
1685284315.6,286046997.0,P
1685284335.5,286046999.6,N
1685284355.3,286046996.9,N
1685284375.1,286046996.5,Y
1685284395.9,286047001.2,P
1685284415.7,286047000.6,N
1685284435.5,286047001.2,N
1685284455.4,286047000.5,N
1685284475.2,286047000.4,N
1685284495.1,286046998.4,N
1685284496.0,286046998.4,N
1685284515.8,286046998.9,N
1685284535.6,286047001.2,N
1685284555.5,286047000.0,N
1685284575.3,286047001.1,N
1685284595.1,286046996.5,N
1685284615.9,286046999.4,N
1685284635.7,286046998.3,N
1685284655.6,286046998.7,N
1685284675.4,286046998.3,N
1685284695.2,286047000.6,N
1685284715.1,286047000.8,N
1685284716.0,286047000.8,N
1685284735.8,286047001.1,N
1685284755.7,286047000.4,N
1685284775.5,286046996.9,N
1685284795.3,286046999.0,N
1685284815.2,286046997.0,N
1685284835.9,286046997.5,N
1685284855.7,286046997.8,N
1685284875.6,286046997.0,N
1685284895.4,286046996.8,N
1685284915.2,286046998.2,N
1685284935.1,286046997.1,N
1685284936.0,286046997.1,N
1685284955.8,286046995.5,N
1685284975.7,286046994.0,Y
1685284995.5,286046993.6,P
1685285015.3,286046996.4,N
1685285035.2,286046995.1,N
1685285055.0,286046995.4,N
1685285055.9,286046995.4,N
1685285075.7,286046997.8,N
1685285095.6,286046996.6,N
1685285115.4,286046999.5,N
1685285135.3,286046999.3,N
1685285155.1,286046998.5,N
1685285156.0,286046998.5,N
1685285175.8,286047001.1,N
1685285225.7,286046998.5,E
1685285235.6,286047000.0,N
1685285255.5,286047002.2,P
1685285275.3,286047002.4,N
1685285295.1,286046999.8,N
1685285315.9,286047000.4,N
1685285335.7,286047002.3,N
1685285355.5,286047000.5,N
1685285375.4,286046999.7,N
1685285395.2,286047000.9,N
1685285415.1,286047000.5,N
1685285416.0,286047000.5,N
1685285435.8,286046998.8,N
1685285455.6,286046998.6,N
1685285475.5,286047001.1,N
1685285495.3,286046998.6,N
1685285515.1,286046998.1,N
1685285535.9,286046998.8,N
1685285555.7,286046998.1,N
1685285575.6,286046998.5,N
1685285595.4,286047000.8,N
1685285615.2,286046999.9,N
1685285635.1,286047002.5,N
1685285636.0,286047002.5,N
1685285655.8,286047002.0,N
1685285675.6,286047002.3,N
1685285695.5,286047001.7,N
1685285715.3,286047001.4,N
1685285735.2,286047002.2,N
1685285755.9,286047001.2,N
1685285775.7,286047000.9,N
1685285795.6,286046998.3,N
1685285815.4,286046998.6,N
1685285835.3,286046998.1,N
1685285855.1,286046998.7,N
1685285856.0,286046998.7,N
1685285875.8,286047000.0,N
1685285895.7,286047000.3,N
1685285915.5,286047000.4,N
1685285935.3,286046998.1,N
1685285955.2,286046998.7,N
1685285975.0,286046998.6,N
1685285975.9,286046998.6,N
1685285995.8,286046998.6,N
